This is the latest recevied weather packets stored in our database for station/object KC6OYN. If no packets are shown the sender has not sent any weather packets the latest 10 day(s).
| Time | Temp. | Humidity | Pressure | Rain* | Wind** | Luminosity | Snow |
|---|---|---|---|---|---|---|---|
| 1777732102 | 19.44° C | 43% | 1023.6 hPa | 0 mm | - | - | - |
| 1777731861 | 18.89° C | 43% | 1023.6 hPa | 0 mm | - | - | - |
| 1777731620 | 18.33° C | 44% | 1023.6 hPa | 0 mm | - | - | - |
| 1777731379 | 18.33° C | 44% | 1023.6 hPa | 0 mm | - | - | - |
| 1777731138 | 17.78° C | 44% | 1023.6 hPa | 0 mm | - | - | - |
| 1777730898 | 17.78° C | 44% | 1023.4 hPa | 0 mm | - | - | - |
| 1777730657 | 17.22° C | 44% | 1023.4 hPa | 0 mm | - | - | - |
| 1777730416 | 17.22° C | 45% | 1023.4 hPa | 0 mm | - | - | - |
| 1777730175 | 16.67° C | 45% | 1023.4 hPa | 0 mm | - | - | - |
| 1777729934 | 16.11° C | 46% | 1023.6 hPa | 0 mm | - | - | - |
| 1777729693 | 16.11° C | 46% | 1023.5 hPa | 0 mm | - | - | - |
| 1777729452 | 15.56° C | 46% | 1023.4 hPa | 0 mm | - | - | - |
| 1777729211 | 15° C | 46% | 1023.4 hPa | 0 mm | - | - | - |
| 1777728970 | 15° C | 46% | 1023.4 hPa | 0 mm | - | - | - |
| 1777728488 | 14.44° C | 47% | 1023.3 hPa | 0 mm | - | - | - |
| 1777728248 | 14.44° C | 47% | 1023.5 hPa | 0 mm | - | - | - |
| 1777728007 | 14.44° C | 46% | 1023.4 hPa | 0 mm | - | - | - |
| 1777727766 | 14.44° C | 46% | 1023.3 hPa | 0 mm | - | - | - |
| 1777727525 | 14.44° C | 46% | 1023.2 hPa | 0 mm | - | - | - |
| 1777727284 | 14.44° C | 46% | 1023.2 hPa | 0 mm | - | - | - |
| 1777727043 | 15° C | 46% | 1023.2 hPa | 0 mm | - | - | - |
| 1777726802 | 15° C | 46% | 1023.1 hPa | 0 mm | - | - | - |
| 1777726561 | 15° C | 45% | 1023.2 hPa | 0 mm | - | - | - |
| 1777726320 | 15° C | 46% | 1023.1 hPa | 0 mm | - | - | - |
| 1777726079 | 15° C | 46% | 1023.2 hPa | 0 mm | - | - | - |
* Rain since midnight (hover to see other rain measurements)
** Current wind speed in m/s (hover to see current wind gust speed)